DECAYED

NOAA 16 DEB, 41127 (Decayed)

Orbit data source: Space-Track

NOAA 16 DEB, 41127 was space debris in SSO originally from a launch on Thu, 21 Sep 2000 UTC launched from the Air Force Western Test Range (AFWTR). Debris objects in space refer to the collection of defunct objects orbiting the Earth. Examples of debris include non-operational satellites, rocket bodies, and fragments generated from explosions, collisions, or faulty payload assembly.

Loading next visibility...
Identifier
41127, 2000-055BJ
Orbit
Decayed
Country
Flag of USUS
Related business
Manufacturer
Unknown
Mission
Decayed spacecraft
Bus & Motor
Unknown
Mass
Unknown
Launch date (UTC)
2000-09-21 (25 years ago)
Launch vehicle
Unknown
Launch site
Air Force Western Test Range (AFWTR)
Object type
Payload
Rocket body
Debris
Shape & HBR
Unknown shape, 0.1 m
Radar Cross Section
Small (<0.1 m²)

Expand to show TLE details & history
Last TLE update: 2 months ago

TLE from 2 months ago
0 NOAA 16 DEB
1 41127U 00055BJ  25336.66811027  .05374670  00000-0  21050-1 0  9996
2 41127  98.8145 240.5880 0014223 113.5217 246.7543 15.82747749527011
Epoch: 2025-12-02T16:02Z
TLE epoch observation values (Epoch: 2025-12-02T16:02:04.727Z)
Latitude
-0.00007°
Longitude
-71.68164°
Altitude
329.578 km
Speed
7.709 km/s
True Right ascension
16h 02m 21s
True Declination
0° 00' 00"
Sunlit
Object was in daylight at epoch
Visualization orbit readout
Latitude
Unknown
Longitude
Unknown
Altitude
Unknown
Speed
Unknown
Apparent Right ascension
Unknown
Apparent Declination
Unknown
Sunlit
N/A
Visualization observer readout
Local Sidereal Time
19:24:35
Azimuth
Unknown
Elevation
Unknown
Doppler factor
Unknown
Orbital elements
Apogee altitude
329.151 km
Perigee altitude
310.098 km
Semi-major axis
6,697.761 km
Eccentricity
0.00142
Inclination
98.8145°
RAAN
240.588°
Arg. of periapsis
113.5217°
True anomaly
246.60465°
Mean anomaly
246.7543°
Eccentric anomaly
246.67947°
Mean motion
3.95958 °/min
Orbital period
90.92 mins
BSTAR
0.02105
Loading maneuver chart data...
Computing Atmospheric mass density...
Loading historical data...
Loading historical data...
Loading historical data...
Loading historical data...
Loading historical data...
Loading historical data...
Loading historical data...

Documentation

Showing up to 5 results
|